SCP
0 0 0 0 0 0 0 0 0 0 0 0 0 0 0 0 0 0 0 0 0 0 0 0 0 0 0 0 0 0 0 0 0 0 0 0 0 0 0 0 0 0 0
0 0 0 0 0 0 0 0 0 0 0 0 0 0 0 0 0 0 0 0 0 0 0 0 0 0 0 0 0 0 0 0 0 0 0 0 0 0 0 0 0 0 0
0 0 0 0 0 0 0 0 0 0 0 0 0 0 0 0 0 0 0 0 0 0 0 0 0 0 0 0 0 0 0 0 0 0 0 0 0 0 0 0 0 0 0
0 0 0 0 0 0 0 0 0 0 0 0 0 0 0 0 0 0 0 0 0 0 0 0 0 0 0 0 0 0 0 0 0 0 0 0 0 0 0 0 0 0 0
0 0 0 0 0 0 0 0 0 0 0 0 0 0 0 0 0 0 0 0 0 0 0 0 0 0 0 0 0 0 0 0 0 0 0 0 0 0 0 0 0 0 0
0 0 0 0 0 0 0 0 0 0 0 0 0 0 0 0 0 0 0 0 0 0 0 0 0 0 0 0 0 0 0 0 0 0 0 0 0 0 0 0 0 0 0
0 0 0 0 0 0 0 0 0 0 0 0 0 0 0 0 0 0 0 0 0 0 0 0 0 0 0 0 0 0 0 0 0 0 0 0 0 0 0 0 0 0 0
0 0 0 0 0 0 0 0 0 0 0 0 0 0 0 0 0 0 0 0 0 0 0 0 0 0 0 0 0 0 0 0 0 0 0 0 0 0 0 0 0 0 0
-0 0 0 0 0 0 0 0 0 0 0 0 0 0 0 0 0 0 0 0 0 1 0 0 0 0 0 0 0 0 0 0 0 0 0 0 0 0 0 0 0 0 0
0 0 0 -0 0 0 0 0 0 0 0 0 0 0 0 0 0 0 0 0 0 0 0 0 0 0 0 0 0 0 0 0 0 0 0 0 0 0 0 0 0 0 0
0 0 0 -0 0 0 0 0 0 0 0 0 0 0 0 0 0 0 0 0 0 1 0 0 0 0 0 0 0 0 0 0 0 0 0 0 0 0 0 0 0 0 0
0 0 0 -0 -0 -0 -0 -0 0 0 0 0 0 0 0 0 0 0 0 0 0 0 0 0 0 0 0 0 0 0 0 0 0 0 0 0 0 0 0 0 0 0 0
0 0 -0 0 0 -0 -0 -0 0 0 0 0 0 0 0 0 0 0 0 0 0 0 0 0 0 0 0 0 0 0 0 0 0 0 0 0 0 0 0 0 0 0 0
0 0 0 0 0 0 0 0 0 0 -0 -0 0 0 0 0 -0 0 0 0 0 0 0 0 0 0 0 0 0 0 0 0 0 0 0 0 0 0 -0 -0 -0 -0 -0
0 0 0 -0 -0 -0 -0 0 0 0 -0 -0 0 0 0 -0 -0 -0 0 0 0 0 0 0 0 0 0 0 0 -0 -0 0 0 0 0 0 -0 -0 -0 -0 -0 -0 -0
0 -0 -0 -0 0 -0 0 0 0 0 -0 0 0 0 0 0 -0 0 0 0 0 0 0 0 0 0 0 0 0 -0 -0 0 0 0 0 0 0 0 -0 0 0 0 0
0 0 0 0 0 0 0 0 0 0 0 0 0 -0 0 0 0 0 0 0 0 0 0 0 0 -0 -0 0 -0 -0 -0 -0 -0 -0 -0 -0 -0 -0 0 0 0 0 0
0 0 0 0 0 0 0 0 0 0 0 0 0 0 0 0 0 0 0 0 -0 0 0 -0 -0 -0 -0 -0 -0 -0 0 0 0 -0 -0 -0 0 0 0 0 0 0 0
0 0 0 0 0 0 0 0 0 0 0 0 0 0 0 0 0 0 0 0 0 -0 -0 -0 -0 0 0 0 0 0 0 0 0 -0 0 0 0 0 0 0 0 0 0
0 0 0 0 0 0 0 0 0 0 -0 -0 0 0 0 0 0 0 0 0 0 0 -0 0 0 0 0 0 0 0 0 0 0 0 0 0 0 0 0 0 0 0 0
0 0 0 0 0 0 0 0 0 0 0 0 0 0 0 0 0 0 0 0 0 0 0 0 0 0 0 0 0 0 0 -0 -0 0 0 0 0 0 0 0 0 0 0
0 0 0 0 0 0 0 0 0 0 0 0 0 0 0 0 0 0 0 0 0 0 0 0 0 -0 0 0 -0 -0 0 0 0 0 0 0 0 0 0 0 0 0 0
0 0 0 0 0 0 0 0 0 0 0 0 0 0 0 0 0 0 0 0 0 0 0 0 0 0 -0 -0 -0 0 -0 0 -0 0 0 0 0 0 0 0 0 0 0
0 0 0 0 0 0 0 0 0 0 0 0 0 0 0 0 0 0 0 0 0 0 0 0 0 0 -0 -0 0 0 0 0 0 0 0 0 0 0 0 0 0 0 0
0 -0 0 0 0 0 0 0 0 0 0 0 0 0 0 0 0 0 0 0 0 -0 0 0 0 0 0 -0 0 0 0 0 0 0 0 0 0 -0 0 0 0 0 0
0 0 0 0 0 0 0 0 0 0 0 0 0 0 0 0 0 0 0 0 0 -0 0 0 0 0 0 0 0 0 0 0 0 0 0 0 0 0 0 0 0 0 0
Wind_Speed_500mb
25 23 23 19 19 18 17 17 23 28 35 44 45 49 43 37 48 46 21 31 33 29 19 16 20 18 14 11 6 2 6 5 4 4 8 7 8 9 11 12 13 14 15
26 22 26 25 24 22 20 19 21 22 24 31 31 35 39 41 52 51 46 36 35 30 26 26 24 26 22 14 10 6 9 10 6 6 8 10 11 12 14 14 15 17 19
26 30 31 28 28 24 21 25 27 28 30 30 31 36 31 32 42 50 55 49 39 38 35 33 27 29 24 16 14 9 11 6 5 5 7 7 7 8 11 13 14 18 22
27 27 31 30 27 24 26 29 32 32 31 30 32 32 30 24 24 27 34 36 39 33 38 36 30 30 25 20 12 9 5 5 5 4 6 5 6 10 15 19 22 24 27
29 32 30 32 38 32 29 34 33 32 31 31 30 31 30 28 29 29 32 32 33 33 33 35 29 27 26 21 13 9 9 9 6 5 5 6 10 15 20 23 26 28 27
27 30 29 29 28 29 32 33 30 27 26 27 29 32 32 30 26 29 34 30 29 30 36 27 29 28 27 19 14 12 9 10 6 5 6 10 16 20 22 25 26 29 29
29 30 30 28 26 25 23 27 26 27 23 23 25 28 31 31 31 29 30 32 35 40 37 31 23 34 20 18 17 12 10 8 7 8 12 19 23 25 27 26 29 30 31
26 27 30 29 29 29 25 28 30 29 26 23 21 25 24 24 24 25 26 28 29 30 32 35 30 18 19 14 18 14 14 10 11 15 20 27 28 30 29 30 32 32 32
24 24 26 27 28 29 29 27 26 25 27 22 22 18 12 11 20 10 13 20 25 33 33 25 23 23 20 17 17 19 17 16 18 20 27 31 32 32 31 29 35 31 30
30 25 23 21 22 22 25 23 20 19 20 21 18 16 21 12 12 10 12 23 28 32 32 29 26 21 19 14 19 18 15 19 22 26 32 35 34 30 29 25 27 27 23
32 34 26 18 11 14 17 16 16 18 18 15 15 13 12 18 14 12 22 35 33 26 23 21 19 15 13 18 15 19 19 24 28 33 36 34 31 31 24 25 27 22 16
30 32 27 20 15 14 15 18 19 18 14 10 13 9 5 6 1 10 27 42 33 27 22 19 14 17 15 15 15 22 27 30 33 34 33 31 26 23 21 21 16 12 11
29 38 26 36 18 24 11 10 10 10 6 10 3 4 9 8 4 8 24 24 20 20 15 15 10 10 7 10 15 22 31 33 35 30 30 22 14 9 9 8 8 11 12
25 26 29 35 31 26 18 17 10 7 11 24 12 16 12 13 13 10 23 22 10 7 8 7 7 6 9 13 23 36 27 32 26 24 16 6 2 2 5 7 10 12 14
22 24 24 24 26 29 27 21 23 23 21 28 23 20 21 20 19 22 20 10 12 9 12 5 4 10 8 12 15 14 17 22 13 10 7 4 5 8 12 16 16 17 17
19 21 23 21 21 24 27 26 31 29 27 24 22 18 17 16 17 16 13 8 4 2 6 3 6 7 5 1 6 5 5 6 4 7 9 11 15 16 18 18 17 16 17
20 19 20 17 16 18 21 26 23 24 21 19 18 17 18 17 15 12 10 8 7 6 6 6 7 6 1 4 7 7 7 7 13 14 14 15 17 15 12 11 11 15 18
19 18 16 14 14 17 15 18 20 19 17 16 14 14 14 10 11 11 8 12 9 10 8 10 9 3 3 9 9 10 6 9 11 19 18 8 5 6 7 9 11 13 14
21 15 14 13 13 15 17 18 19 17 16 15 14 13 13 11 12 11 14 12 7 5 5 3 3 3 3 3 9 11 8 9 7 15 12 12 15 16 17 17 18 18 15
21 17 15 12 12 12 13 14 13 15 16 16 17 16 15 15 15 16 10 10 8 8 4 4 1 1 3 9 5 8 9 12 11 10 9 6 17 17 21 19 20 22 22
24 22 19 17 13 11 7 8 16 19 18 17 19 20 21 24 22 19 14 7 6 6 5 2 1 2 3 6 10 11 14 13 16 6 13 17 18 21 24 24 23 23 23
24 24 23 21 17 12 14 17 21 11 14 15 14 15 13 19 16 15 13 13 13 7 7 5 2 5 8 12 14 15 15 15 14 10 15 20 21 19 22 17 29 25 28
18 19 20 19 19 20 21 20 16 12 13 12 12 12 13 9 14 8 13 16 17 17 16 13 11 11 13 16 23 23 19 20 18 20 19 21 19 17 30 16 21 23 21
11 15 17 17 15 17 17 17 16 15 8 7 8 8 10 10 11 15 12 12 13 13 14 13 14 14 15 17 25 27 27 27 22 19 10 19 19 22 15 23 19 12 9
10 9 8 11 14 13 11 9 10 7 7 8 8 8 9 10 14 14 15 14 14 15 21 16 13 16 17 22 23 16 15 20 25 18 13 15 19 20 15 7 6 7 9
8 5 7 7 7 5 6 6 6 7 10 10 9 9 15 14 14 14 13 15 18 15 10 8 15 21 21 17 12 13 15 20 20 19 6 11 9 12 12 8 8 8 6
Wind_Direction_500mb
295 296 288 293 294 301 309 311 298 285 272 266 264 260 263 255 246 240 226 232 236 226 221 231 221 205 198 184 180 253 321 333 325 253 238 229 234 246 258 273 282 287 287
279 285 280 284 282 281 284 288 288 295 296 297 277 275 270 260 258 273 280 270 250 232 243 235 221 227 195 196 197 249 288 285 261 252 243 246 254 263 268 276 287 289 296
302 286 274 268 270 272 293 296 293 294 288 274 272 278 286 264 253 257 251 256 244 239 240 232 224 212 188 201 207 255 289 230 224 234 254 260 269 274 283 289 289 292 294
303 295 290 282 269 283 287 287 290 289 286 279 270 260 261 255 264 252 236 230 233 234 232 221 213 200 186 204 230 272 225 239 223 201 216 235 275 287 288 289 293 292 293
301 295 280 277 278 280 280 283 285 282 282 278 269 261 255 249 243 236 230 222 228 225 213 218 204 191 189 192 225 225 205 199 183 186 203 274 292 295 293 292 293 294 301
310 301 292 279 278 265 264 268 275 275 277 274 264 257 252 248 245 230 229 222 214 211 212 194 184 182 190 205 210 201 196 198 219 221 268 303 307 307 303 305 304 305 292
310 304 298 295 303 289 290 296 289 282 278 271 266 257 253 240 242 233 225 215 208 209 199 190 165 178 188 200 191 203 195 220 235 280 288 302 307 308 305 306 299 292 294
318 305 295 293 295 289 290 288 281 279 280 271 258 261 247 221 223 213 211 207 199 190 182 175 172 168 166 180 209 208 216 238 260 279 288 298 299 301 301 292 291 291 285
331 318 303 295 282 279 288 291 288 275 281 283 275 247 270 227 188 191 176 184 182 178 167 163 175 185 188 196 213 215 229 238 264 272 289 296 299 299 295 293 295 288 291
350 342 321 296 295 280 287 294 291 283 278 288 288 245 243 243 203 156 161 166 160 161 161 178 182 190 201 211 212 231 239 260 270 282 292 293 291 288 283 283 299 292 279
5 10 8 1 337 303 299 307 318 310 298 305 291 272 244 239 236 213 162 162 166 156 164 164 191 209 217 220 234 243 258 263 275 284 288 288 288 284 277 291 297 304 296
8 15 17 9 354 339 312 314 320 311 302 300 302 291 264 210 244 214 169 166 159 165 171 186 202 218 230 241 242 258 273 275 279 285 289 290 282 276 277 292 302 318 321
7 20 26 17 36 6 344 335 319 339 338 318 289 136 100 118 159 134 154 143 162 159 169 194 204 255 244 266 279 267 277 277 280 277 289 279 266 270 274 287 308 316 320
357 3 22 29 27 24 21 31 79 37 60 65 114 112 106 111 138 145 149 168 142 177 164 157 198 238 271 273 258 274 284 288 277 277 271 228 232 272 272 291 301 311 316
360 3 6 0 11 20 36 50 65 83 96 85 96 96 89 89 99 97 136 148 167 177 169 156 195 249 250 278 274 275 272 268 269 252 232 234 262 268 282 288 295 299 307
1 1 0 0 14 26 45 63 69 75 78 80 78 80 86 90 90 104 115 124 124 82 83 157 187 202 223 273 294 2 300 290 299 277 269 267 269 276 280 275 282 293 300
2 359 357 2 13 31 43 51 57 52 56 61 64 67 72 74 93 87 88 82 70 88 97 137 162 227 232 208 268 288 306 290 281 310 292 277 273 273 270 272 285 297 301
2 5 7 15 11 29 46 46 41 34 30 30 38 51 58 56 63 76 72 87 99 100 120 147 169 238 191 274 291 297 290 288 285 281 290 288 267 256 260 281 289 294 295
10 23 24 26 22 18 24 26 24 26 36 39 43 51 54 60 79 96 108 95 88 116 90 71 108 216 274 282 301 318 312 296 316 303 303 292 266 262 271 278 281 277 281
30 39 38 30 27 27 25 28 25 40 61 55 63 71 69 73 91 89 74 60 46 67 58 77 111 276 331 294 301 301 312 288 309 295 295 277 288 279 265 268 273 276 277
49 48 46 45 44 37 42 76 40 51 62 62 69 67 77 86 84 93 97 84 81 82 74 48 28 269 290 323 341 331 331 325 320 298 294 290 296 293 285 274 281 280 272
43 43 40 42 52 43 72 82 97 67 67 75 77 81 65 68 74 75 65 50 39 24 354 319 300 324 305 319 320 322 310 312 311 296 314 296 286 287 285 273 282 288 284
39 42 43 44 47 64 79 84 75 61 64 51 50 53 69 51 54 8 359 18 18 10 358 326 310 304 320 321 327 328 319 309 314 308 303 304 307 308 305 269 282 288 281
39 47 48 54 50 55 66 73 76 59 44 47 62 38 27 8 358 14 8 355 353 345 338 335 313 327 328 334 332 324 320 317 313 307 278 306 311 305 299 304 296 276 274
14 39 33 44 53 51 53 57 52 23 15 358 343 322 324 329 334 339 345 334 332 326 320 301 303 312 315 321 325 342 324 323 321 320 304 317 310 306 288 250 274 253 285
322 332 312 320 341 342 2 14 13 47 359 355 324 326 349 359 330 338 353 337 329 328 343 324 322 322 315 321 316 336 334 327 327 323 320 334 317 337 313 291 285 313 267
Wind_Speed_850mb
25 23 23 19 19 18 17 17 23 28 35 44 45 49 43 37 48 46 21 31 33 29 19 16 20 18 14 11 6 2 6 5 4 4 8 7 8 9 11 12 13 14 15
26 22 26 25 24 22 20 19 21 22 24 31 31 35 39 41 52 51 46 36 35 30 26 26 24 26 22 14 10 6 9 10 6 6 8 10 11 12 14 14 15 17 19
26 30 31 28 28 24 21 25 27 28 30 30 31 36 31 32 42 50 55 49 39 38 35 33 27 29 24 16 14 9 11 6 5 5 7 7 7 8 11 13 14 18 22
27 27 31 30 27 24 26 29 32 32 31 30 32 32 30 24 24 27 34 36 39 33 38 36 30 30 25 20 12 9 5 5 5 4 6 5 6 10 15 19 22 24 27
29 32 30 32 38 32 29 34 33 32 31 31 30 31 30 28 29 29 32 32 33 33 33 35 29 27 26 21 13 9 9 9 6 5 5 6 10 15 20 23 26 28 27
27 30 29 29 28 29 32 33 30 27 26 27 29 32 32 30 26 29 34 30 29 30 36 27 29 28 27 19 14 12 9 10 6 5 6 10 16 20 22 25 26 29 29
29 30 30 28 26 25 23 27 26 27 23 23 25 28 31 31 31 29 30 32 35 40 37 31 23 34 20 18 17 12 10 8 7 8 12 19 23 25 27 26 29 30 31
26 27 30 29 29 29 25 28 30 29 26 23 21 25 24 24 24 25 26 28 29 30 32 35 30 18 19 14 18 14 14 10 11 15 20 27 28 30 29 30 32 32 32
24 24 26 27 28 29 29 27 26 25 27 22 22 18 12 11 20 10 13 20 25 33 33 25 23 23 20 17 17 19 17 16 18 20 27 31 32 32 31 29 35 31 30
30 25 23 21 22 22 25 23 20 19 20 21 18 16 21 12 12 10 12 23 28 32 32 29 26 21 19 14 19 18 15 19 22 26 32 35 34 30 29 25 27 27 23
32 34 26 18 11 14 17 16 16 18 18 15 15 13 12 18 14 12 22 35 33 26 23 21 19 15 13 18 15 19 19 24 28 33 36 34 31 31 24 25 27 22 16
30 32 27 20 15 14 15 18 19 18 14 10 13 9 5 6 1 10 27 42 33 27 22 19 14 17 15 15 15 22 27 30 33 34 33 31 26 23 21 21 16 12 11
29 38 26 36 18 24 11 10 10 10 6 10 3 4 9 8 4 8 24 24 20 20 15 15 10 10 7 10 15 22 31 33 35 30 30 22 14 9 9 8 8 11 12
25 26 29 35 31 26 18 17 10 7 11 24 12 16 12 13 13 10 23 22 10 7 8 7 7 6 9 13 23 36 27 32 26 24 16 6 2 2 5 7 10 12 14
22 24 24 24 26 29 27 21 23 23 21 28 23 20 21 20 19 22 20 10 12 9 12 5 4 10 8 12 15 14 17 22 13 10 7 4 5 8 12 16 16 17 17
19 21 23 21 21 24 27 26 31 29 27 24 22 18 17 16 17 16 13 8 4 2 6 3 6 7 5 1 6 5 5 6 4 7 9 11 15 16 18 18 17 16 17
20 19 20 17 16 18 21 26 23 24 21 19 18 17 18 17 15 12 10 8 7 6 6 6 7 6 1 4 7 7 7 7 13 14 14 15 17 15 12 11 11 15 18
19 18 16 14 14 17 15 18 20 19 17 16 14 14 14 10 11 11 8 12 9 10 8 10 9 3 3 9 9 10 6 9 11 19 18 8 5 6 7 9 11 13 14
21 15 14 13 13 15 17 18 19 17 16 15 14 13 13 11 12 11 14 12 7 5 5 3 3 3 3 3 9 11 8 9 7 15 12 12 15 16 17 17 18 18 15
21 17 15 12 12 12 13 14 13 15 16 16 17 16 15 15 15 16 10 10 8 8 4 4 1 1 3 9 5 8 9 12 11 10 9 6 17 17 21 19 20 22 22
24 22 19 17 13 11 7 8 16 19 18 17 19 20 21 24 22 19 14 7 6 6 5 2 1 2 3 6 10 11 14 13 16 6 13 17 18 21 24 24 23 23 23
24 24 23 21 17 12 14 17 21 11 14 15 14 15 13 19 16 15 13 13 13 7 7 5 2 5 8 12 14 15 15 15 14 10 15 20 21 19 22 17 29 25 28
18 19 20 19 19 20 21 20 16 12 13 12 12 12 13 9 14 8 13 16 17 17 16 13 11 11 13 16 23 23 19 20 18 20 19 21 19 17 30 16 21 23 21
11 15 17 17 15 17 17 17 16 15 8 7 8 8 10 10 11 15 12 12 13 13 14 13 14 14 15 17 25 27 27 27 22 19 10 19 19 22 15 23 19 12 9
10 9 8 11 14 13 11 9 10 7 7 8 8 8 9 10 14 14 15 14 14 15 21 16 13 16 17 22 23 16 15 20 25 18 13 15 19 20 15 7 6 7 9
8 5 7 7 7 5 6 6 6 7 10 10 9 9 15 14 14 14 13 15 18 15 10 8 15 21 21 17 12 13 15 20 20 19 6 11 9 12 12 8 8 8 6
Wind_Direction_850mb
295 296 288 293 294 301 309 311 298 285 272 266 264 260 263 255 246 240 226 232 236 226 221 231 221 205 198 184 180 253 321 333 325 253 238 229 234 246 258 273 282 287 287
279 285 280 284 282 281 284 288 288 295 296 297 277 275 270 260 258 273 280 270 250 232 243 235 221 227 195 196 197 249 288 285 261 252 243 246 254 263 268 276 287 289 296
302 286 274 268 270 272 293 296 293 294 288 274 272 278 286 264 253 257 251 256 244 239 240 232 224 212 188 201 207 255 289 230 224 234 254 260 269 274 283 289 289 292 294
303 295 290 282 269 283 287 287 290 289 286 279 270 260 261 255 264 252 236 230 233 234 232 221 213 200 186 204 230 272 225 239 223 201 216 235 275 287 288 289 293 292 293
301 295 280 277 278 280 280 283 285 282 282 278 269 261 255 249 243 236 230 222 228 225 213 218 204 191 189 192 225 225 205 199 183 186 203 274 292 295 293 292 293 294 301
310 301 292 279 278 265 264 268 275 275 277 274 264 257 252 248 245 230 229 222 214 211 212 194 184 182 190 205 210 201 196 198 219 221 268 303 307 307 303 305 304 305 292
310 304 298 295 303 289 290 296 289 282 278 271 266 257 253 240 242 233 225 215 208 209 199 190 165 178 188 200 191 203 195 220 235 280 288 302 307 308 305 306 299 292 294
318 305 295 293 295 289 290 288 281 279 280 271 258 261 247 221 223 213 211 207 199 190 182 175 172 168 166 180 209 208 216 238 260 279 288 298 299 301 301 292 291 291 285
331 318 303 295 282 279 288 291 288 275 281 283 275 247 270 227 188 191 176 184 182 178 167 163 175 185 188 196 213 215 229 238 264 272 289 296 299 299 295 293 295 288 291
350 342 321 296 295 280 287 294 291 283 278 288 288 245 243 243 203 156 161 166 160 161 161 178 182 190 201 211 212 231 239 260 270 282 292 293 291 288 283 283 299 292 279
5 10 8 1 337 303 299 307 318 310 298 305 291 272 244 239 236 213 162 162 166 156 164 164 191 209 217 220 234 243 258 263 275 284 288 288 288 284 277 291 297 304 296
8 15 17 9 354 339 312 314 320 311 302 300 302 291 264 210 244 214 169 166 159 165 171 186 202 218 230 241 242 258 273 275 279 285 289 290 282 276 277 292 302 318 321
7 20 26 17 36 6 344 335 319 339 338 318 289 136 100 118 159 134 154 143 162 159 169 194 204 255 244 266 279 267 277 277 280 277 289 279 266 270 274 287 308 316 320
357 3 22 29 27 24 21 31 79 37 60 65 114 112 106 111 138 145 149 168 142 177 164 157 198 238 271 273 258 274 284 288 277 277 271 228 232 272 272 291 301 311 316
360 3 6 0 11 20 36 50 65 83 96 85 96 96 89 89 99 97 136 148 167 177 169 156 195 249 250 278 274 275 272 268 269 252 232 234 262 268 282 288 295 299 307
1 1 0 0 14 26 45 63 69 75 78 80 78 80 86 90 90 104 115 124 124 82 83 157 187 202 223 273 294 2 300 290 299 277 269 267 269 276 280 275 282 293 300
2 359 357 2 13 31 43 51 57 52 56 61 64 67 72 74 93 87 88 82 70 88 97 137 162 227 232 208 268 288 306 290 281 310 292 277 273 273 270 272 285 297 301
2 5 7 15 11 29 46 46 41 34 30 30 38 51 58 56 63 76 72 87 99 100 120 147 169 238 191 274 291 297 290 288 285 281 290 288 267 256 260 281 289 294 295
10 23 24 26 22 18 24 26 24 26 36 39 43 51 54 60 79 96 108 95 88 116 90 71 108 216 274 282 301 318 312 296 316 303 303 292 266 262 271 278 281 277 281
30 39 38 30 27 27 25 28 25 40 61 55 63 71 69 73 91 89 74 60 46 67 58 77 111 276 331 294 301 301 312 288 309 295 295 277 288 279 265 268 273 276 277
49 48 46 45 44 37 42 76 40 51 62 62 69 67 77 86 84 93 97 84 81 82 74 48 28 269 290 323 341 331 331 325 320 298 294 290 296 293 285 274 281 280 272
43 43 40 42 52 43 72 82 97 67 67 75 77 81 65 68 74 75 65 50 39 24 354 319 300 324 305 319 320 322 310 312 311 296 314 296 286 287 285 273 282 288 284
39 42 43 44 47 64 79 84 75 61 64 51 50 53 69 51 54 8 359 18 18 10 358 326 310 304 320 321 327 328 319 309 314 308 303 304 307 308 305 269 282 288 281
39 47 48 54 50 55 66 73 76 59 44 47 62 38 27 8 358 14 8 355 353 345 338 335 313 327 328 334 332 324 320 317 313 307 278 306 311 305 299 304 296 276 274
14 39 33 44 53 51 53 57 52 23 15 358 343 322 324 329 334 339 345 334 332 326 320 301 303 312 315 321 325 342 324 323 321 320 304 317 310 306 288 250 274 253 285
322 332 312 320 341 342 2 14 13 47 359 355 324 326 349 359 330 338 353 337 329 328 343 324 322 322 315 321 316 336 334 327 327 323 320 334 317 337 313 291 285 313 267